This demonstration page uses our WeatherBlox Daily Observations layout. Learn more.

40.92945, -100.16068

Hourly Observations for December 27, 2019

Temp ( °F °C ) Dew Point ( °F °C ) Humidity (%) Winds ( mph kmh ) Pressure ( in mb ) Visibility ( mi km ) Precip ( " mm )
12:15 am 00:15 Clear 22 -5.8 21 -6.3 96 96 Calm 30.34 1027 10 16.0934 0 0
12:35 am 00:35 Clear 22 -5.6 21 -6.2 96 96 WNW 5 7 30.33 1027 10 16.0934 0 0
12:55 am 00:55 Clear 22 -5.8 20 -6.5 95 95 Calm 30.34 1027 10 16.0934 0 0
1:15 am 01:15 Clear 22 -5.7 21 -6.3 96 96 Calm 30.34 1027 10 16.0934 0 0
1:35 am 01:35 Clear 21 -6.3 20 -6.8 96 96 Calm 30.34 1027 10 16.0934 0 0
1:55 am 01:55 Clear 21 -6 20 -6.4 97 97 Calm 30.34 1027 10 16.0934 0 0
2:15 am 02:15 Clear 22 -5.8 21 -6.2 97 97 Calm 30.33 1027 10 16.0934 0 0
2:35 am 02:35 Clear 21 -6.3 20 -6.9 96 96 Calm 30.34 1027 10 16.0934 0 0
2:55 am 02:55 Clear 21 -6.1 20 -6.8 95 95 Calm 30.34 1027 10 16.0934 0 0
3:15 am 03:15 Clear 21 -6.3 19 -7 95 95 Calm 30.35 1028 10 16.0934 0 0
3:35 am 03:35 Clear 21 -6.2 19 -7 94 94 Calm 30.35 1028 10 16.0934 0 0
3:55 am 03:55 Clear 21 -6.1 20 -6.6 96 96 Calm 30.35 1028 10 16.0934 0 0
4:15 am 04:15 Clear 20 -6.4 19 -7 96 96 NE 3 6 30.34 1028 10 16.0934 0 0
4:35 am 04:35 Clear 20 -6.5 19 -7.1 96 96 NE 3 6 30.35 1028 10 16.0934 0 0
4:55 am 04:55 Clear 20 -6.4 19 -7 96 96 NNE 5 7 30.33 1027 10 16.0934 0 0
5:15 am 05:15 Clear 21 -6 20 -6.5 96 96 Calm 30.33 1027 10 16.0934 0 0
5:35 am 05:35 Clear 21 -6.1 20 -6.7 96 96 Calm 30.34 1027 10 16.0934 0 0
5:55 am 05:55 Clear 21 -6.1 20 -6.8 95 95 Calm 30.34 1027 10 16.0934 0 0
6:15 am 06:15 Clear 21 -6.1 20 -6.9 94 94 Calm 30.34 1027 10 16.0934 0 0
6:35 am 06:35 Clear 21 -6.2 19 -7 94 94 Calm 30.34 1027 10 16.0934 0 0
6:55 am 06:55 Clear 21 -6 20 -6.6 96 96 Calm 30.33 1027 10 16.0934 0 0
7:15 am 07:15 Clear 22 -5.6 20 -6.4 94 94 Calm 30.32 1027 10 16.0934 0 0
7:35 am 07:35 Clear 22 -5.5 21 -6.1 96 96 Calm 30.32 1027 10 16.0934 0 0
7:55 am 07:55 Clear 22 -5.5 21 -6.1 96 96 Calm 30.32 1027 10 16.0934 0 0
8:15 am 08:15 Sunny 22 -5.7 20 -6.4 95 95 Calm 30.33 1027 10 16.0934 0 0
8:35 am 08:35 Sunny 23 -5.2 21 -6 94 94 Calm 30.32 1027 10 16.0934 0 0
8:55 am 08:55 Sunny 24 -4.6 22 -5.4 94 94 Calm 30.31 1027 10 16.0934 0 0
9:15 am 09:15 Partly Cloudy 25 -3.7 24 -4.5 94 94 Calm 30.31 1026 7 11.26538 0 0
9:35 am 09:35 Sunny 26 -3.2 25 -4 94 94 Calm 30.31 1026 10 16.0934 0 0
9:55 am 09:55 Sunny 28 -2 26 -3.1 92 92 Calm 30.3 1026 10 16.0934 0 0
10:15 am 10:15 Sunny 30 -1.1 28 -2.3 92 92 Calm 30.29 1026 10 16.0934 0 0
10:35 am 10:35 Sunny 31 -0.7 28 -2.3 89 89 Calm 30.28 1026 10 16.0934 0 0
10:55 am 10:55 Sunny 31 -0.5 28 -2 90 90 Calm 30.27 1025 10 16.0934 0 0
11:15 am 11:15 Sunny 32 0 29 -1.6 89 89 SSE 6 9 30.26 1025 10 16.0934 0 0
11:35 am 11:35 Sunny 33 0.5 29 -1.5 87 87 SSE 7 11 30.24 1024 10 16.0934 0 0
11:55 am 11:55 Mostly Cloudy 33 0.8 29 -1.8 83 83 S 9 15 30.22 1023 10 16.0934 0 0
12:15 pm 12:15 Cloudy 35 1.5 29 -1.8 79 79 S 6 9 30.19 1022 10 16.0934 0 0
12:35 pm 12:35 Cloudy 35 1.9 29 -1.4 79 79 S 8 13 30.19 1022 10 16.0934 0 0
12:55 pm 12:55 Cloudy 36 2.4 30 -1.2 77 77 SSE 7 11 30.16 1021 10 16.0934 0 0
1:15 pm 13:15 Mostly Cloudy 37 2.5 30 -1.3 76 76 SSE 5 7 30.14 1021 10 16.0934 0 0
1:35 pm 13:35 Cloudy 38 3.2 29 -1.5 72 72 SSE 8 13 30.13 1020 10 16.0934 0 0
1:55 pm 13:55 Cloudy 38 3.1 30 -1.2 74 74 S 9 15 30.13 1020 10 16.0934 0 0
2:15 pm 14:15 Mostly Cloudy 38 3.2 29 -1.9 70 70 SSE 12 19 30.13 1020 10 16.0934 0 0
2:35 pm 14:35 Mostly Cloudy 37 2.8 29 -1.8 72 72 SSE 10 17 30.11 1020 10 16.0934 0 0
2:55 pm 14:55 Partly Cloudy 37 2.7 29 -1.6 74 74 SE 5 7 30.11 1020 10 16.0934 0 0
3:15 pm 15:15 Mostly Cloudy 37 2.7 29 -1.5 74 74 SSE 9 15 30.1 1019 10 16.0934 0 0
3:35 pm 15:35 Cloudy 37 2.7 29 -1.8 73 73 SE 9 15 30.1 1019 10 16.0934 0 0
3:55 pm 15:55 Cloudy 37 2.5 29 -1.4 76 76 SE 9 15 30.09 1019 10 16.0934 0 0
4:15 pm 16:15 Cloudy 36 2.2 29 -1.5 77 77 ESE 7 11 30.1 1019 10 16.0934 0 0
4:35 pm 16:35 Cloudy with Light Snow 36 2.1 30 -1.2 79 79 ESE 3 6 30.1 1019 5 8.0467 0 0
4:55 pm 16:55 Cloudy 35 1.6 31 -0.8 84 84 E 6 9 30.07 1018 10 16.0934 0 0
5:15 pm 17:15 Cloudy 35 1.5 31 -0.6 86 86 ESE 5 7 30.09 1019 10 16.0934 0 0
5:35 pm 17:35 Cloudy 35 1.4 31 -0.5 87 87 E 5 7 30.08 1019 10 16.0934 0 0
5:55 pm 17:55 Cloudy with Light Snow 35 1.4 31 -0.8 85 85 E 8 13 30.07 1018 2 3.21868 0 0
6:15 pm 18:15 Cloudy with Light Rain 33 0.7 31 -0.5 92 92 E 8 13 30.08 1019 5 8.0467 0.03 0.762
6:35 pm 18:35 Cloudy with Light Rain 33 0.5 32 -0.1 96 96 E 8 13 30.07 1018 5 8.0467 0.05 1.27
6:55 pm 18:55 Cloudy with Rain 33 0.5 32 -0.2 95 95 E 10 17 30.06 1018 5 8.0467 0.08 2.032
7:15 pm 19:15 Cloudy with Light Rain 33 0.3 32 -0.1 97 97 E 12 19 30.05 1018 5 8.0467 0.03 0.762
7:35 pm 19:35 Cloudy with Light Rain 32 0.2 32 -0.1 98 98 E 9 15 30.05 1018 5 8.0467 0.07 1.778
7:55 pm 19:55 Cloudy with Rain 32 0.2 32 0 99 99 E 8 13 30.05 1018 4 6.43736 0.1 2.54
8:15 pm 20:15 Cloudy with Rain 32 0.2 32 0 99 99 E 10 17 30.04 1017 4 6.43736 0.03 0.762
8:35 pm 20:35 Cloudy with Light Rain 32 0 32 0 100 100 ESE 12 19 30.05 1017 4 6.43736 0.07 1.778
8:55 pm 20:55 Cloudy with Light Rain 32 0 32 0 100 100 ESE 15 24 30.04 1017 4 6.43736 0.08 2.032
9:15 pm 21:15 Cloudy with Snow 32 0 32 -0.1 99 99 E 14 22 30.02 1016 4 6.43736 0 0
9:35 pm 21:35 Cloudy with Mist and Fog 32 0 31 -0.3 98 98 E 16 26 30 1016 5 8.0467 0.01 0.254
9:55 pm 21:55 Cloudy with Mist and Fog 32 0 31 -0.3 98 98 E 12 19 30 1016 5 8.0467 0.01 0.254
10:15 pm 22:15 Cloudy with Mist and Fog 32 -0.1 31 -0.5 97 97 ESE 12 19 30 1016 5 8.0467 0 0
10:35 pm 22:35 Cloudy with Mist and Fog 32 -0.1 31 -0.5 97 97 ESE 9 15 29.99 1015 5 8.0467 0 0
10:55 pm 22:55 Cloudy with Mist and Fog 32 -0.1 31 -0.5 97 97 ESE 8 13 29.99 1015 5 8.0467 0 0
11:15 pm 23:15 Cloudy 32 0 31 -0.5 96 96 SE 12 19 29.99 1015 7 11.26538 0 0
11:35 pm 23:35 Cloudy 32 0 31 -0.5 96 96 SE 7 11 29.99 1015 7 11.26538 0 0
11:55 pm 23:55 Cloudy with Mist and Fog 32 -0.1 31 -0.3 99 99 ESE 8 13 29.96 1014 3 4.82802 0 0

Powered by AerisWeather